Showing default

ICEYE-X6, 46497

Orbit data source: Space-Track

ICEYE-X6, 46497 is a payload satellite owned by ICEYE (FI) in SSO that was launched on Mon, 28 Sep 2020 UTC via a SOYUZ-2-1B launch vehicle from the Plesetsk Missile And Space Complex (PKMTR). Payload-class satellites include a variety of spacecraft equipped with specific instruments for various scientific and technological missions. These include communications satellites like Starlink; space stations such as the ISS; scientific satellites like the Hubble; Earth observation satellites from companies like Planet Labs, Umbra, and HawkEye 360; GPS; miniature CubeSats for education and research; and military/defense satellites.

Loading next visibility...
Identifier
46497, 2020-068M
Orbit
SSO
Country
Flag of FIFI / FIN
Related business
Manufacturer
ICEYE
Mission
Operational Commercial Radar Imaging
Bus & Motor
ICEYE, Unknown motor
Mass
80 kg wet, 80 kg dry
Launch date (UTC)
2020-09-28 (5 years ago)
Launch vehicle
SOYUZ-2-1B
Launch site
Plesetsk Missile And Space Complex (PKMTR)
Object type
Payload
Rocket body
Debris
Shape & HBR
Box + 1 Pan, 1.6 m
Radar Cross Section
1.837 m², Medium (>0.1 m² and < 1m²)

Expand to show TLE details & history
Last TLE update: 6 hours ago

TLE from 6 hours ago
0 ICEYE-X6
1 46497U 20068M   25242.92213892  .00007385  00000-0  57541-3 0  9995
2 46497  98.0739 218.7240 0005223  13.0134 347.1223 15.01510621269625
Epoch: 2025-08-30T22:07Z
TLE epoch observation values (Epoch: 2025-08-30T22:07:52.802Z)
Latitude
-0.00003°
Longitude
-92.59549°
Altitude
561.748 km
Speed
7.582 km/s
True Right ascension
14h 34m 53s
True Declination
0° 00' 00"
Sunlit
Object was in daylight at epoch
Visualization orbit readout
Latitude
Unknown
Longitude
Unknown
Altitude
Unknown
Speed
Unknown
Apparent Right ascension
Unknown
Apparent Declination
Unknown
Sunlit
N/A
Visualization observer readout
Local Sidereal Time
20:07:22
Azimuth
Unknown
Elevation
Unknown
Doppler factor
Unknown
Orbital elements
Apogee altitude
562.881 km
Perigee altitude
555.634 km
Semi-major axis
6,937.395 km
Eccentricity
0.00052
Inclination
98.0739°
RAAN
218.724°
Arg. of periapsis
13.0134°
True anomaly
347.10895°
Mean anomaly
347.1223°
Eccentric anomaly
347.11563°
Mean motion
3.7562 °/min
Orbital period
95.84 mins
BSTAR
0.00057541
Loading maneuver chart data...
Computing Atmospheric mass density...
Loading historical data...
Loading historical data...
Loading historical data...
Loading historical data...
Loading historical data...
Loading historical data...
Loading historical data...

Documentation

Showing up to 5 results
|